Location: *
(46.3500°N, 10.9000°E)
Time: 11:24:46
(UTC+00:00)

A-11 Canister half - Visible Passes

Search period start: 18 April 2021 00:00
Search period end: 28 April 2021 00:00
Orbit: 1525 x 1683 km, 47.3° (Epoch: 17 April)

Date Brightness Start Highest point End Pass type
(mag) Time Alt. Az. Time Alt. Az. Time Alt. Az.
18 Apr 9.2 20:17:14 10° WNW 20:27:17 67° SSW 20:32:25 33° SE visible
18 Apr 10.1 22:23:11 10° WNW 22:30:42 27° SW 22:30:42 27° SW visible
19 Apr 9.2 19:55:32 10° WNW 20:05:37 69° SSW 20:11:50 27° SE visible
19 Apr 10.0 22:01:23 10° WNW 22:09:30 29° SW 22:10:07 28° SW visible
20 Apr 9.2 19:33:49 10° WNW 19:43:56 71° SSW 19:51:17 21° SE visible
20 Apr 9.9 21:39:36 10° WNW 21:47:54 30° SW 21:49:34 29° SSW visible
21 Apr 9.3 19:12:07 10° WNW 19:22:15 72° SSW 19:30:45 16° SE visible
21 Apr 9.9 21:17:49 10° WNW 21:26:18 32° SW 21:29:03 28° SSW visible
22 Apr 9.3 18:50:26 10° WNW 19:00:34 74° SSW 19:10:16 11° ESE visible
22 Apr 10.0 20:56:03 10° WNW 21:04:41 33° SW 21:08:33 26° S visible
23 Apr 9.3 18:28:43 10° WNW 18:38:53 76° SSW 18:48:57 10° ESE visible
23 Apr 10.0 20:34:17 10° WNW 20:43:05 35° SW 20:48:06 23° S visible
24 Apr 10.0 20:12:33 10° WNW 20:21:27 37° SW 20:27:41 19° S visible
25 Apr 10.0 19:50:48 10° WNW 19:59:50 38° SW 20:07:19 15° SSE visible
26 Apr 10.0 19:29:03 10° WNW 19:38:13 40° SW 19:47:00 11° SSE visible
27 Apr 10.0 19:07:20 10° WNW 19:16:35 42° SW 19:25:45 10° SSE visible
27 Apr 11.0 21:17:03 10° WSW 21:19:29 11° WSW 21:21:56 10° SW visible
